Location: Boiro
(42.6475°N, 8.8834°W)
Time: 06:53:44
(UTC+01:00)

Vanguard 1 - Pass Details

Date: 05 December 2021
Orbit: 652 x 3830 km, 34.2° (Epoch: 21 January)

Event Time Altitude Azimuth Distance (km) Brightness Sun altitude
Rises 09:04:34 0° 281° (W) 7,296 13.9 1.4°
Reaches altitude 10° 09:13:50 10° 259° (W) 5,532 13.5 2.8°
Maximum altitude 09:19:39 13° 237° (WSW) 4,696 13.3 3.7°
Drops below altitude 10° 09:24:29 10° 214° (SW) 4,407 13.5 4.4°
Sets 09:30:01 0° 188° (S) 4,728 14.0 5.2°
